Date String (YYYY-MM-DD hh:mm:ss) UTC,Instrument flags,Ambient pressure (hPa),Sample flow (lpm),Bypass flow (lpm),Sample temperature (°C),Ambient temperature (°C),ASC tube jacket temperature (°C),LED temperature (°C),Box temperature (°C),Sample RH (%),Span deviation,Mass concentration (μg/m³),Mass concentration (μg/m³),Mass concentration (μg/m³)
DateTimeUTC,F1_M11,P_M11,Q1_M11,Q2_M11,T1_M11,T2_M11,T3_M11,T4_M11,T5_M11,U1_M11,ZSPAN_M11,X0_M11,X2_M11,X1_M11
2022-10-16 06:00:00,,0833.6,5.00,0.00,30.3,28.8,00.0,39.2,32.1,16.0,0000.0,0011.41,0004.43,0003.86
2022-10-16 06:01:00,,0833.6,5.00,0.00,30.3,28.8,00.0,39.2,32.1,16.0,0000.0,0011.58,0004.41,0003.85
2022-10-16 06:02:00,,0833.6,4.99,0.00,30.3,28.8,00.0,39.2,32.1,16.0,0000.0,0011.19,0004.41,0003.85
2022-10-16 06:03:00,,0833.6,5.01,0.00,30.3,28.9,00.0,39.2,32.1,16.0,0000.0,0010.53,0004.42,0003.86
2022-10-16 06:04:00,,0833.5,5.01,0.00,30.3,28.9,00.0,39.2,32.1,16.0,0000.0,0010.07,0004.44,0003.88
2022-10-16 06:05:00,,0833.5,4.99,0.00,30.3,28.9,00.0,39.2,32.1,16.0,0000.0,0009.74,0004.45,0003.90
2022-10-16 06:06:00,,0833.6,5.02,0.00,30.3,28.9,00.0,39.2,32.1,16.0,0000.0,0009.38,0004.46,0003.92
2022-10-16 06:07:00,,0833.6,4.99,0.00,30.3,28.9,00.0,39.2,32.1,16.0,0000.0,0009.38,0004.47,0003.94
2022-10-16 06:08:00,,0833.5,4.99,0.00,30.3,28.9,00.0,39.2,32.1,16.1,0000.0,0009.01,0004.48,0003.97
2022-10-16 06:09:00,,0833.5,5.00,0.00,30.3,28.9,00.0,39.2,32.1,16.2,0000.0,0009.16,0004.51,0003.99
2022-10-16 06:10:00,,0833.6,4.99,0.00,30.3,28.9,00.0,39.2,32.1,16.2,0000.0,0009.45,0004.58,0004.02
2022-10-16 06:11:00,,0833.5,4.99,0.00,30.3,28.9,00.0,39.2,32.1,16.3,0000.0,0009.29,0004.66,0004.06
2022-10-16 06:12:00,,0833.6,5.02,0.00,30.3,28.9,00.0,39.2,32.1,16.3,0000.0,0009.29,0004.72,0004.10
2022-10-16 06:13:00,,0833.6,4.99,0.00,30.3,28.9,00.0,39.2,32.1,16.3,0000.0,0009.39,0004.76,0004.14
2022-10-16 06:14:00,,0833.5,5.00,0.00,30.3,28.9,00.0,39.2,32.1,16.3,0000.0,0010.16,0004.85,0004.18
2022-10-16 06:15:00,,0833.6,5.00,0.00,30.3,28.9,00.0,39.2,32.1,16.3,0000.0,0010.85,0004.88,0004.19
2022-10-16 06:16:00,,0833.6,5.02,0.00,30.3,28.8,00.0,39.2,32.1,16.3,0000.0,0010.88,0004.88,0004.20
2022-10-16 06:17:00,,0833.5,4.99,0.00,30.3,28.8,00.0,39.2,32.1,16.3,0000.0,0010.90,0004.90,0004.22
2022-10-16 06:18:00,,0833.5,4.99,0.00,30.4,28.8,00.0,39.2,32.1,16.3,0000.0,0010.77,0004.92,0004.24
2022-10-16 06:19:00,,0833.5,5.00,0.00,30.3,28.8,00.0,39.2,32.1,16.3,0000.0,0010.54,0004.94,0004.26
2022-10-16 06:20:00,,0833.5,5.02,0.00,30.4,28.8,00.0,39.2,32.1,16.3,0000.0,0010.53,0004.95,0004.28
2022-10-16 06:21:00,,0833.5,4.99,0.00,30.4,28.8,00.0,39.2,32.1,16.3,0000.0,0009.97,0004.93,0004.30
2022-10-16 06:22:00,,0833.6,4.99,0.00,30.3,28.8,00.0,39.2,32.1,16.2,0000.0,0009.86,0004.90,0004.30
2022-10-16 06:23:00,,0833.6,4.99,0.00,30.3,28.8,00.0,39.2,32.1,16.1,0000.0,0009.73,0004.87,0004.29
2022-10-16 06:24:00,,0833.6,5.00,0.00,30.3,28.8,00.0,39.2,32.1,16.2,0000.0,0009.61,0004.83,0004.28
2022-10-16 06:25:00,,0833.6,5.01,0.00,30.3,28.8,00.0,39.2,32.1,16.3,0000.0,0008.93,0004.78,0004.27
2022-10-16 06:26:00,,0833.5,5.01,0.00,30.4,28.8,00.0,39.2,32.1,16.3,0000.0,0008.26,0004.75,0004.26
2022-10-16 06:27:00,,0833.5,5.00,0.00,30.4,28.8,00.0,39.2,32.1,16.3,0000.0,0008.30,0004.77,0004.28
2022-10-16 06:28:00,,0833.5,4.99,0.00,30.3,28.8,00.0,39.2,32.1,16.3,0000.0,0008.47,0004.81,0004.28
2022-10-16 06:29:00,,0833.5,4.99,0.00,30.3,28.8,00.0,39.2,32.1,16.3,0000.0,0008.43,0004.79,0004.28
2022-10-16 06:30:00,,0833.6,5.00,0.00,30.3,28.8,00.0,39.2,32.1,16.3,0000.0,0008.60,0004.80,0004.29
2022-10-16 06:31:00,,0833.6,5.01,0.00,30.3,28.8,00.0,39.2,32.1,16.3,0000.0,0008.77,0004.81,0004.27
2022-10-16 06:32:00,,0833.6,5.00,0.00,30.3,28.9,00.0,39.2,32.1,16.2,0000.0,0009.46,0004.83,0004.26
2022-10-16 06:33:00,,0833.5,5.00,0.00,30.4,28.9,00.0,39.2,32.1,16.1,0000.0,0009.57,0004.83,0004.25
2022-10-16 06:34:00,,0833.5,5.00,0.00,30.3,28.9,00.0,39.2,32.1,16.0,0000.0,0009.54,0004.77,0004.23
2022-10-16 06:35:00,,0833.6,4.99,0.00,30.3,28.9,00.0,39.2,32.1,15.9,0000.0,0009.60,0004.78,0004.21
2022-10-16 06:36:00,,0833.6,4.99,0.00,30.4,28.9,00.0,39.2,32.1,15.9,0000.0,0010.05,0004.77,0004.17
2022-10-16 06:37:00,,0833.6,5.01,0.00,30.4,28.9,00.0,39.2,32.1,15.9,0000.0,0009.98,0004.74,0004.14
2022-10-16 06:38:00,,0833.6,5.00,0.00,30.4,28.9,00.0,39.2,32.1,15.9,0000.0,0009.94,0004.70,0004.10
2022-10-16 06:39:00,,0833.6,4.99,0.00,30.4,28.9,00.0,39.2,32.1,15.8,0000.0,0009.71,0004.64,0004.04
2022-10-16 06:40:00,,0833.6,5.01,0.00,30.4,28.9,00.0,39.2,32.1,15.9,0000.0,0009.53,0004.61,0004.00
2022-10-16 06:41:00,,0833.6,5.00,0.00,30.4,28.9,00.0,39.2,32.2,16.0,0000.0,0009.37,0004.58,0003.96
2022-10-16 06:42:00,,0833.6,4.98,0.00,30.4,28.9,00.0,39.2,32.2,15.9,0000.0,0009.10,0004.53,0003.93
2022-10-16 06:43:00,,0833.6,5.01,0.00,30.4,28.8,00.0,39.2,32.2,15.9,0000.0,0008.63,0004.44,0003.89
2022-10-16 06:44:00,,0833.6,5.01,0.00,30.4,28.8,00.0,39.2,32.2,15.9,0000.0,0008.51,0004.44,0003.87
2022-10-16 06:45:00,,0833.6,5.00,0.00,30.4,28.8,00.0,39.2,32.1,16.1,0000.0,0008.61,0004.50,0003.87
2022-10-16 06:46:00,,0833.5,4.99,0.00,30.4,28.8,00.0,39.2,32.1,16.2,0000.0,0008.47,0004.50,0003.88
2022-10-16 06:47:00,,0833.5,5.00,0.00,30.4,28.8,00.0,39.2,32.1,16.3,0000.0,0008.50,0004.49,0003.90
2022-10-16 06:48:00,,0833.6,5.00,0.00,30.4,28.8,00.0,39.2,32.1,16.3,0000.0,0008.82,0004.49,0003.92
2022-10-16 06:49:00,,0833.5,4.99,0.00,30.4,28.8,00.0,39.2,32.1,16.4,0000.0,0008.82,0004.48,0003.94
2022-10-16 06:50:00,,0833.5,4.99,0.00,30.4,28.9,00.0,39.2,32.1,16.3,0000.0,0008.84,0004.48,0003.96
2022-10-16 06:51:00,,0833.5,5.01,0.00,30.4,28.9,00.0,39.2,32.1,16.3,0000.0,0008.97,0004.54,0004.00
2022-10-16 06:52:00,,0833.6,5.01,0.00,30.4,28.9,00.0,39.2,32.1,16.3,0000.0,0008.86,0004.54,0004.02
2022-10-16 06:53:00,,0833.6,4.99,0.00,30.4,28.9,00.0,39.2,32.1,16.4,0000.0,0009.56,0004.58,0004.04
2022-10-16 06:54:00,,0833.5,5.00,0.00,30.4,28.9,00.0,39.2,32.2,16.4,0000.0,0010.04,0004.60,0004.06
2022-10-16 06:55:00,,0833.6,4.99,0.00,30.4,28.9,00.0,39.2,32.1,16.4,0000.0,0010.46,0004.63,0004.07
2022-10-16 06:56:00,,0833.6,5.00,0.00,30.4,28.9,00.0,39.2,32.1,16.5,0000.0,0010.40,0004.63,0004.09
2022-10-16 06:57:00,,0833.6,5.00,0.00,30.4,28.9,00.0,39.2,32.1,16.5,0000.0,0010.52,0004.64,0004.10
2022-10-16 06:58:00,,0833.6,5.00,0.00,30.4,28.9,00.0,39.2,32.1,16.4,0000.0,0010.22,0004.70,0004.11
2022-10-16 06:59:00,,0833.6,5.00,0.00,30.4,28.9,00.0,39.2,32.1,16.4,0000.0,0009.94,0004.72,0004.11
